Location: Downe
(51.3167°N, 0.0500°E)
Time: 10:28:47
(UTC+00:00)

Cosmos 2333 Rocket - Pass Details

Date: 17 November 2019
Orbit: 837 x 865 km, 70.8° (Epoch: 16 December)

Event Time Altitude Azimuth Distance (km) Brightness Sun altitude
Exits shadow 05:31:28 - 335° (NNW) 2,771 4.6 -16.7°
Reaches altitude 10° 05:32:11 10° 338° (NNW) 2,516 4.4 -16.6°
Maximum altitude 05:37:41 43° 49° (NE) 1,202 3.3 -15.7°
Drops below altitude 10° 05:43:10 10° 120° (ESE) 2,505 5.8 -14.9°
Sets 05:45:45 0° 128° (SE) 3,437 6.6 -14.5°
